Location: Albert Place
(40.7505°N, 111.9230°W)
Time: 23:22:27
(UTC+00:00)

Cosmos 1570 Rocket - Visible Passes

Search period start: 14 March 2026 00:00
Search period end: 24 March 2026 00:00
Orbit: 760 x 783 km, 74.1° (Epoch: 14 March)

Date Brightness Start Highest point End Pass type
(mag) Time Alt. Az. Time Alt. Az. Time Alt. Az.
19 Mar 6.7 05:31:02 10° NNW 05:31:38 13° N 05:31:38 13° N visible
20 Mar 6.3 04:55:12 10° N 04:56:23 16° N 04:56:23 16° N visible
21 Mar 6.1 04:19:37 10° N 04:21:09 16° NNE 04:21:09 16° NNE visible
21 Mar 6.9 06:01:06 10° NNW 06:01:29 12° NNW 06:01:29 12° NNW visible
22 Mar 6.1 03:44:29 10° NNE 03:45:57 13° NE 03:45:57 13° NE visible
22 Mar 6.3 05:24:50 10° NNW 05:26:17 19° NNW 05:26:17 19° NNW visible
23 Mar 5.7 04:48:47 10° NNW 04:51:06 26° N 04:51:06 26° N visible
